Regional Weather Roundup
Issued by NWS

Home | Current Version | Previous Version | Text Only | Print | Product List | Glossary On
Versions: 1 2 3 4 5 6 7 8 9 10 11 12 13 14 15 16 17 18 19 20 21 22 23 24 25 26 27 28 29 30 31 32 33 34 35 36 37 38 39 40 41 42 43 44 45 46 47 48 49 50
000
ASUS43 KDMX 172306
RWRIA

WEATHER ROUNDUP FOR IOWA
NATIONAL WEATHER SERVICE DES MOINES IA
600 PM CDT TUE OCT 17 2017

NOTE: "FAIR" INDICATES FEW OR NO CLOUDS BELOW 12,000 FEET WITH NO
SIGNIFICANT WEATHER AND/OR OBSTRUCTIONS TO VISIBILITY.

* - THESE STATIONS ARE NOT NWS STATIONS...THUS NOT UNDER NWS
QUALITY CONTROL.  THEY ALSO DO NOT REPORT WEATHER SUCH
AS PRECIPITATION OR FOG.

IAZ001>003-012>014-020>022-031>034-043>046-180000-
   NORTHWEST IOWA

CITY           SKY/WX    TMP DP  RH WIND       PRES   REMARKS
CARROLL *      CLEAR     72  48  43 SW7G14    29.99F
CHEROKEE *     CLEAR     66  48  53 S5        29.97S
DENISON *      CLEAR     68  45  42 SW5       30.01S
LE MARS *      CLEAR     72  43  35 S7        29.95F
ORANGE CITY *  CLEAR     72  45  37 S6        29.96F
SHELDON *      CLEAR     72  39  30 S7        29.94S
SIOUX CITY     CLEAR     71  47  42 SE8       29.96S
SPENCER        CLEAR     71  43  36 S8        29.96S
STORM LAKE *   CLEAR     68  43  40 S8        29.98F
$$

IAZ055>058-069>071-079>083-090>094-180000-
   SOUTHWEST IOWA

CITY           SKY/WX    TMP DP  RH WIND       PRES   REMARKS
ATLANTIC *     CLEAR     68  46  45 SW10      30.01S
AUDUBON *      CLEAR     68  45  42 S6        30.02S
CLARINDA *     CLEAR     70  46  43 S7        30.04S
COUNCIL BLFS * CLEAR     68  48  49 S8        30.00F
CRESTON *      CLEAR     66  45  45 S10       30.05R
HARLAN  *      CLEAR     68  45  42 S8        30.04S
LAMONI         CLEAR     67  46  47 S9        30.05S
RED OAK *      CLEAR     70  46  43 S8        30.01F
SHENANDOAH *   CLEAR     72  45  37 S8G14     30.01F
$$

IAZ047>049-059>061-072>074-084-180000-
   CENTRAL IOWA

CITY           SKY/WX    TMP DP  RH WIND       PRES   REMARKS
AMES           CLEAR     67  47  48 S9        30.01S
ANKENY *       CLEAR     70  45  40 S8G15     30.03S
BOONE *        CLEAR     70  43  37 S8        30.00S
CHARITON *     CLEAR     68  45  42 S9        30.04F
DES MOINES     CLEAR     69  44  40 S12       30.03R
GRINNELL*      CLEAR     67  44  42 S9        30.05F
KNOXVILLE *    CLEAR     68  45  42 S7        30.03F
MARSHALLTOWN   CLEAR     68  46  45 S10       30.02S
NEWTON *       CLEAR     68  45  42 S12       30.03F
PELLA *        CLEAR     68  44  40 S7        30.06S
PERRY *          N/A     70  39  31 SW9       30.01S
$$

IAZ004>006-015-016-023>025-035-036-180000-
   NORTH CENTRAL IOWA

CITY           SKY/WX    TMP DP  RH WIND       PRES   REMARKS
ALGONA *       CLEAR     70  45  40 S8        29.98S
CLARION *      CLEAR     70  46  43 S8        29.99S
ESTHERVILLE    CLEAR     70  42  36 S7        29.95S
FORT DODGE *   CLEAR     69  46  43 SW9       29.99F
MASON CITY     CLEAR     65  45  48 S6        30.00S
FOREST CITY *    N/A     68  43  40 S7        29.98F
WEBSTER CITY * CLEAR     70  43  37 S9        29.98S
IOWA FALLS *     N/A     70  44  40 S12       30.01F
$$

IAZ007>011-017>019-026>030-037>042-050>054-066-180000-
   NORTHEAST IOWA

CITY           SKY/WX    TMP DP  RH WIND       PRES   REMARKS
CEDAR RAPIDS   CLEAR     67  43  41 S9        30.05F
CHARLES CITY * CLEAR     70  43  37 SW5       30.00S
CLINTON *      CLEAR     64  44  48 S9        30.10R
DECORAH *      CLEAR     68  45  42 SW6       29.99F
DUBUQUE        CLEAR     65  43  44 S12       30.06S
MONTICELLO *   CLEAR     68  43  40 S8        30.05S
OELWEIN *      CLEAR     68  43  40 S14       30.02F
WATERLOO       CLEAR     67  43  41 S10       30.01S
$$

IAZ064-065-067-068-078-180000-
   EAST CENTRAL IOWA

CITY           SKY/WX    TMP DP  RH WIND       PRES   REMARKS
DAVENPORT      CLEAR     65  42  43 S8        30.11S
IOWA CITY      CLEAR     69  44  40 S9        30.08F
MUSCATINE *    CLEAR     68  43  40 S9        30.09S
QUAD CITIES    CLEAR     66  42  41 SW6       30.09S
$$

IAZ062-063-075>077-085>089-095>099-180000-
   SOUTHEAST IOWA

CITY           SKY/WX    TMP DP  RH WIND       PRES   REMARKS
BURLINGTON     CLEAR     66  43  43 S9        30.10S
FAIRFIELD *    CLEAR     68  41  37 S7        30.08S
FORT MADISON * CLEAR     66  43  42 S6        30.11S
KEOKUK *       CLEAR     66  41  39 S8        30.10S
OSKALOOSA *      N/A     66  44  43 S8        30.07S
OTTUMWA        CLEAR     67  44  43 S9        30.07S
WASHINGTON *   CLEAR     66  45  45 S7        30.09S
$$

ABBREVIATIONS USED IN REMARKS
   TC - TEMPERATURES IN CELSIUS
  WCI - WIND CHILL INDEX
   HX - HEAT INDEX
  VSB - VISIBILITY
$$





USA.gov is the U.S. government's official web portal to all federal, state and local government web resources and services.